Location: Lynch Observatory
(39.9540°N, 75.1861°W)
Time: 19:20:15
(UTC-04:00)

ZACube-1 - Visible Passes

Search period start: 24 April 2024 00:00
Search period end: 04 May 2024 00:00
Orbit: 567 x 638 km, 97.7° (Epoch: 24 April)

Date Brightness Start Highest point End Pass type
(mag) Time Alt. Az. Time Alt. Az. Time Alt. Az.
24 Apr ? 03:30:22 10° NNE 03:34:32 40° E 03:35:15 37° ESE visible
24 Apr ? 05:06:55 10° NNW 05:09:58 19° WNW 05:12:04 14° W visible
25 Apr ? 03:42:05 10° NNE 03:46:25 55° E 03:47:21 45° SE visible
25 Apr ? 05:19:22 10° NNW 05:21:43 14° WNW 05:24:04 10° W visible
26 Apr ? 03:53:52 10° NNE 03:58:18 75° ESE 03:59:26 49° S visible
26 Apr ? 05:32:23 10° NW 05:33:25 11° WNW 05:34:27 10° WNW visible
27 Apr ? 04:05:40 10° N 04:10:06 80° WNW 04:11:29 44° SSW visible
28 Apr ? 02:44:01 10° ENE 02:45:47 12° E 02:46:42 11° ESE visible
28 Apr ? 04:17:31 10° N 04:21:53 59° WNW 04:23:31 35° SW visible
29 Apr ? 02:54:51 10° NE 02:57:40 16° E 02:58:42 15° ESE visible
29 Apr ? 04:29:25 10° N 04:33:36 43° WNW 04:35:30 27° SW visible
30 Apr ? 03:06:04 10° NE 03:09:31 22° E 03:10:40 20° ESE visible
30 Apr ? 04:41:20 10° N 04:45:18 33° WNW 04:47:27 21° WSW visible
01 May ? 03:17:26 10° NE 03:21:19 29° E 03:22:37 25° SE visible
01 May ? 04:53:19 10° NNW 04:56:56 25° WNW 04:59:24 16° WSW visible
02 May ? 03:28:54 10° NNE 03:33:04 39° E 03:34:31 30° SE visible
02 May ? 05:05:23 10° NNW 05:08:31 19° WNW 05:11:19 11° WSW visible
03 May ? 03:40:26 10° NNE 03:44:47 53° E 03:46:24 34° SSE visible
03 May ? 05:17:36 10° NNW 05:20:03 15° WNW 05:22:31 10° W visible
